TUI2183 EDDN-LIPB

Flight info

Callsign TUI2183
Flight time 0h 43m
Altitude 31000
Route BOLSI1C/10 BOLSI Y167 AKANU L603 OLETU Z106 MANAL M736 LIZUM N503 LIKDA/N0450F190 N503 BAKOR Y107 ALESE ALES1X
Aircraft B738/M-SADE2E3FGHIJ1RWXYZ/LB1

Departure

Time 2026-05-01 09:22
Airport Nuremberg Airport (EDDN)

Arrival

Time 2026-05-01 10:06
Airport Bolzano Airport (LIPB)
Time Latitude Longitude Altitude Speed Heading
2026-05-01 09:02 49.49531 11.07660 1025 ft 0 kts 188°
2026-05-01 09:12 49.49542 11.07663 1025 ft 2 kts 198°
2026-05-01 09:13 49.49557 11.07673 1024 ft 2 kts 210°
2026-05-01 09:13 49.49570 11.07687 1025 ft 2 kts 229°
2026-05-01 09:13 49.49579 11.07708 1024 ft 2 kts 246°
2026-05-01 09:13 49.49585 11.07732 1026 ft 2 kts 256°
2026-05-01 09:14 49.49589 11.07756 1023 ft 2 kts 233°
2026-05-01 09:14 49.49591 11.07780 1025 ft 2 kts 283°
2026-05-01 09:14 49.49586 11.07804 1026 ft 2 kts 290°
2026-05-01 09:14 49.49581 11.07827 1026 ft 2 kts 288°
2026-05-01 09:15 49.49579 11.07835 1026 ft 0 kts 285°
2026-05-01 09:17 49.49579 11.07833 1026 ft 1 kts 285°
2026-05-01 09:17 49.49584 11.07793 1026 ft 5 kts 278°
2026-05-01 09:17 49.49600 11.07626 1024 ft 10 kts 278°
2026-05-01 09:18 49.49610 11.07525 1024 ft 10 kts 278°
2026-05-01 09:18 49.49630 11.07329 1024 ft 9 kts 278°
2026-05-01 09:19 49.49713 11.07226 1021 ft 12 kts 340°
2026-05-01 09:19 49.49746 11.07103 1020 ft 15 kts 278°
2026-05-01 09:19 49.49761 11.06944 1019 ft 15 kts 281°
2026-05-01 09:20 49.49793 11.06641 1019 ft 14 kts 279°
2026-05-01 09:20 49.49880 11.06496 1021 ft 2 kts 337°
2026-05-01 09:21 49.49918 11.06474 1021 ft 4 kts 350°
2026-05-01 09:21 49.49951 11.06480 1022 ft 6 kts
2026-05-01 09:21 49.49987 11.06595 1023 ft 22 kts 99°
2026-05-01 09:22 49.49791 11.08507 1050 ft 150 kts 101°
2026-05-01 09:22 49.49430 11.11654 2482 ft 160 kts 99°
2026-05-01 09:23 49.49254 11.13526 2824 ft 193 kts 99°
2026-05-01 09:23 49.48817 11.18046 3696 ft 224 kts 99°
2026-05-01 09:24 49.47767 11.22756 4894 ft 247 kts 133°
2026-05-01 09:24 49.46358 11.24275 5880 ft 252 kts 153°
2026-05-01 09:24 49.42704 11.24687 7438 ft 274 kts 181°
2026-05-01 09:25 49.39358 11.21981 9089 ft 290 kts 225°
2026-05-01 09:25 49.36595 11.17262 10624 ft 302 kts 225°
2026-05-01 09:26 49.35146 11.14804 11033 ft 320 kts 226°
2026-05-01 09:26 49.31944 11.09467 11742 ft 358 kts 225°
2026-05-01 09:26 49.30206 11.06600 12088 ft 374 kts 225°
2026-05-01 09:27 49.25642 11.02472 12557 ft 399 kts 185°
2026-05-01 09:27 49.22891 11.02557 13146 ft 400 kts 172°
2026-05-01 09:27 49.20100 11.02919 13819 ft 404 kts 173°
2026-05-01 09:28 49.17277 11.03184 14396 ft 409 kts 174°
2026-05-01 09:28 49.14418 11.03416 14923 ft 413 kts 174°
2026-05-01 09:28 49.11558 11.03634 15468 ft 417 kts 174°
2026-05-01 09:28 49.08650 11.03851 16043 ft 420 kts 174°
2026-05-01 09:29 49.02767 11.04289 17154 ft 426 kts 174°
2026-05-01 09:29 48.99792 11.04512 17671 ft 430 kts 174°
2026-05-01 09:30 48.93846 11.04979 19230 ft 422 kts 174°
2026-05-01 09:30 48.90944 11.05209 20196 ft 412 kts 174°
2026-05-01 09:30 48.85331 11.05625 22227 ft 392 kts 174°
2026-05-01 09:31 48.82668 11.05815 23215 ft 384 kts 174°
2026-05-01 09:31 48.80013 11.06079 23938 ft 381 kts 168°
2026-05-01 09:31 48.75242 11.09305 24747 ft 378 kts 135°
2026-05-01 09:32 48.73326 11.12031 25222 ft 377 kts 131°
2026-05-01 09:32 48.69555 11.17656 26117 ft 383 kts 132°
2026-05-01 09:32 48.67632 11.20461 26537 ft 387 kts 132°
2026-05-01 09:33 48.65693 11.23258 26959 ft 390 kts 132°
2026-05-01 09:33 48.63769 11.26198 27369 ft 390 kts 126°
2026-05-01 09:33 48.60515 11.32697 28188 ft 393 kts 122°
2026-05-01 09:34 48.58888 11.36067 28621 ft 396 kts 122°
2026-05-01 09:34 48.57251 11.39424 29051 ft 398 kts 122°
2026-05-01 09:34 48.53908 11.46171 29811 ft 404 kts 122°
2026-05-01 09:35 48.52225 11.49540 30169 ft 407 kts 122°
2026-05-01 09:35 48.48773 11.56394 30807 ft 414 kts 125°
2026-05-01 09:35 48.46653 11.59403 31061 ft 426 kts 141°
2026-05-01 09:36 48.44024 11.61539 31362 ft 435 kts 156°
2026-05-01 09:36 48.41052 11.62783 31394 ft 447 kts 164°
2026-05-01 09:36 48.38028 11.63735 31412 ft 454 kts 165°
2026-05-01 09:37 48.31748 11.65693 31413 ft 467 kts 164°
2026-05-01 09:37 48.25305 11.67884 31409 ft 479 kts 163°
2026-05-01 09:37 48.22033 11.69017 31406 ft 485 kts 163°
2026-05-01 09:38 48.12080 11.72444 31385 ft 493 kts 163°
2026-05-01 09:39 48.02033 11.75878 31374 ft 493 kts 163°
2026-05-01 09:39 47.95341 11.78162 31379 ft 492 kts 163°
2026-05-01 09:40 47.85166 11.79949 31387 ft 499 kts 180°
2026-05-01 09:41 47.78227 11.79369 31367 ft 499 kts 180°
2026-05-01 09:41 47.71262 11.78926 31220 ft 502 kts 179°
2026-05-01 09:41 47.67806 11.78742 30963 ft 501 kts 179°
2026-05-01 09:42 47.64313 11.78552 30723 ft 499 kts 179°
2026-05-01 09:42 47.60838 11.78358 30479 ft 499 kts 179°
2026-05-01 09:42 47.53922 11.77968 29974 ft 502 kts 179°
2026-05-01 09:43 47.46926 11.77575 29398 ft 503 kts 179°
2026-05-01 09:43 47.43426 11.77378 28414 ft 504 kts 179°
2026-05-01 09:43 47.39936 11.77183 27529 ft 503 kts 179°
2026-05-01 09:44 47.32956 11.76795 25708 ft 503 kts 179°
2026-05-01 09:44 47.29481 11.76600 25056 ft 496 kts 179°
2026-05-01 09:44 47.26043 11.76408 24404 ft 491 kts 179°
2026-05-01 09:45 47.22646 11.76220 23668 ft 487 kts 179°
2026-05-01 09:45 47.15927 11.75847 22236 ft 475 kts 179°
2026-05-01 09:45 47.12644 11.75662 21575 ft 470 kts 179°
2026-05-01 09:46 47.09402 11.75481 20888 ft 465 kts 179°
2026-05-01 09:46 47.06179 11.75312 20241 ft 460 kts 178°
2026-05-01 09:46 47.02996 11.75147 19604 ft 455 kts 178°
2026-05-01 09:46 46.99854 11.74979 19230 ft 445 kts 179°
2026-05-01 09:47 46.96850 11.74812 19056 ft 433 kts 178°
2026-05-01 09:47 46.93810 11.74646 18889 ft 442 kts 178°
2026-05-01 09:47 46.90709 11.74481 18708 ft 447 kts 178°
2026-05-01 09:47 46.87608 11.74313 18438 ft 443 kts 178°
2026-05-01 09:48 46.84535 11.74144 18235 ft 439 kts 178°
2026-05-01 09:48 46.81486 11.73976 18079 ft 437 kts 178°
2026-05-01 09:48 46.78441 11.73810 17894 ft 438 kts 178°
2026-05-01 09:48 46.75431 11.73648 17695 ft 439 kts 178°
2026-05-01 09:49 46.72372 11.73482 17499 ft 440 kts 178°
2026-05-01 09:49 46.69307 11.73315 17312 ft 440 kts 178°
2026-05-01 09:49 46.66241 11.73150 17101 ft 438 kts 178°
2026-05-01 09:49 46.63211 11.72784 16914 ft 436 kts 187°
2026-05-01 09:50 46.60279 11.71609 16749 ft 441 kts 198°
2026-05-01 09:50 46.57484 11.69695 16540 ft 445 kts 209°
2026-05-01 09:50 46.54817 11.67442 16515 ft 439 kts 202°
2026-05-01 09:50 46.51914 11.66175 16394 ft 434 kts 186°
2026-05-01 09:51 46.48954 11.65567 16236 ft 435 kts 185°
2026-05-01 09:51 46.45940 11.64956 16055 ft 437 kts 185°
2026-05-01 09:51 46.42937 11.64282 15875 ft 437 kts 186°
2026-05-01 09:51 46.39940 11.63541 15698 ft 437 kts 187°
2026-05-01 09:52 46.36947 11.62754 15538 ft 436 kts 188°
2026-05-01 09:52 46.33956 11.61942 15338 ft 435 kts 188°
2026-05-01 09:52 46.31011 11.61128 15153 ft 424 kts 188°
2026-05-01 09:52 46.28208 11.60349 14987 ft 408 kts 188°
2026-05-01 09:53 46.25453 11.59588 14836 ft 395 kts 188°
2026-05-01 09:53 46.22791 11.58857 14671 ft 383 kts 188°
2026-05-01 09:53 46.20199 11.58149 14515 ft 373 kts 188°
2026-05-01 09:53 46.17709 11.57470 14337 ft 363 kts 188°
2026-05-01 09:54 46.15266 11.56805 14220 ft 353 kts 188°
2026-05-01 09:54 46.12872 11.56155 14052 ft 345 kts 187°
2026-05-01 09:54 46.10544 11.55522 13898 ft 336 kts 188°
2026-05-01 09:54 46.08279 11.54903 13760 ft 325 kts 187°
2026-05-01 09:55 46.06087 11.54308 13652 ft 315 kts 187°
2026-05-01 09:55 46.03969 11.53728 13531 ft 303 kts 189°
2026-05-01 09:55 46.02073 11.52597 13420 ft 300 kts 217°
2026-05-01 09:55 46.00718 11.50397 13324 ft 291 kts 244°
2026-05-01 09:56 46.00080 11.47714 13256 ft 278 kts 265°
2026-05-01 09:56 46.00087 11.44988 13203 ft 270 kts 280°
2026-05-01 09:56 46.00519 11.42413 13077 ft 262 kts 302°
2026-05-01 09:56 46.01413 11.40159 13043 ft 259 kts 306°
2026-05-01 09:57 46.02330 11.37918 12967 ft 260 kts 306°
2026-05-01 09:57 46.03237 11.35656 12893 ft 261 kts 305°
2026-05-01 09:57 46.04131 11.33381 12825 ft 261 kts 305°
2026-05-01 09:57 46.05038 11.31044 12410 ft 273 kts 304°
2026-05-01 09:58 46.05948 11.28672 12205 ft 270 kts 303°
2026-05-01 09:58 46.06851 11.26298 11957 ft 269 kts 303°
2026-05-01 09:58 46.07731 11.23972 11776 ft 265 kts 303°
2026-05-01 09:58 46.08605 11.21661 11605 ft 260 kts 303°
2026-05-01 09:59 46.09462 11.19396 11450 ft 254 kts 304°
2026-05-01 09:59 46.10559 11.17509 11284 ft 241 kts 334°
2026-05-01 09:59 46.12128 11.16943 11070 ft 235 kts
2026-05-01 09:59 46.13755 11.17336 10558 ft 243 kts 14°
2026-05-01 10:00 46.15445 11.17972 9818 ft 255 kts 18°
2026-05-01 10:00 46.17139 11.18756 9260 ft 255 kts 20°
2026-05-01 10:00 46.18786 11.19566 8769 ft 252 kts 20°
2026-05-01 10:00 46.20438 11.20387 8259 ft 250 kts 20°
2026-05-01 10:01 46.22080 11.21204 7780 ft 248 kts 20°
2026-05-01 10:01 46.23705 11.22009 7304 ft 246 kts 19°
2026-05-01 10:01 46.25299 11.22797 6819 ft 236 kts 19°
2026-05-01 10:01 46.26825 11.23553 6340 ft 228 kts 19°
2026-05-01 10:02 46.28297 11.24278 5915 ft 219 kts 18°
2026-05-01 10:02 46.29709 11.24979 5487 ft 210 kts 18°
2026-05-01 10:02 46.31069 11.25652 5032 ft 203 kts 18°
2026-05-01 10:02 46.32377 11.26296 4627 ft 198 kts 18°
2026-05-01 10:03 46.33663 11.26933 4238 ft 193 kts 18°
2026-05-01 10:03 46.34896 11.27541 3885 ft 181 kts 18°
2026-05-01 10:03 46.36056 11.28118 3528 ft 172 kts 19°
2026-05-01 10:03 46.37161 11.28663 3199 ft 162 kts 19°
2026-05-01 10:04 46.38189 11.29172 2888 ft 155 kts 19°
2026-05-01 10:04 46.38860 11.29503 2693 ft 152 kts 19°
2026-05-01 10:04 46.39853 11.29994 2399 ft 150 kts 19°
2026-05-01 10:04 46.40848 11.30486 2111 ft 152 kts 19°
2026-05-01 10:05 46.41849 11.30996 1808 ft 151 kts 23°
2026-05-01 10:05 46.42769 11.31678 1365 ft 149 kts 27°
2026-05-01 10:05 46.43720 11.32096 1103 ft 138 kts
2026-05-01 10:05 46.44692 11.32288 936 ft 145 kts 11°
2026-05-01 10:06 46.45632 11.32539 788 ft 127 kts 10°
2026-05-01 10:06 46.46297 11.32715 785 ft 66 kts 11°
2026-05-01 10:06 46.46581 11.32788 786 ft 18 kts 10°
2026-05-01 10:06 46.46676 11.32834 786 ft 13 kts 63°
2026-05-01 10:07 46.46639 11.32923 786 ft 13 kts 185°
2026-05-01 10:07 46.46553 11.32904 786 ft 12 kts 194°
2026-05-01 10:07 46.46470 11.32880 786 ft 12 kts 190°
2026-05-01 10:07 46.46388 11.32859 786 ft 12 kts 190°
2026-05-01 10:08 46.46265 11.32827 786 ft 5 kts 189°
2026-05-01 10:08 46.46247 11.32854 786 ft 3 kts 86°
2026-05-01 10:08 46.46244 11.32880 786 ft 0 kts 100°